Year,Month,Day,Hour,Minute,Value (Times are PST for windspeed in km/hr)
2010,05,19,00,00,7.10
2010,05,19,00,01,3.50
2010,05,19,00,02,2.70
2010,05,19,00,03,3.40
2010,05,19,00,04,9.20
2010,05,19,00,05,8.60
2010,05,19,00,06,7.70
2010,05,19,00,07,6.10
2010,05,19,00,08,7.10
2010,05,19,00,09,3.90
2010,05,19,00,10,1.90
2010,05,19,00,11,5.70
2010,05,19,00,12,6.50
2010,05,19,00,13,7.80
2010,05,19,00,14,7.00
2010,05,19,00,15,4.50
2010,05,19,00,16,1.40
2010,05,19,00,17,6.70
2010,05,19,00,18,6.10
2010,05,19,00,19,8.60
2010,05,19,00,20,7.00
2010,05,19,00,21,5.60
2010,05,19,00,22,2.30
2010,05,19,00,23,2.80
2010,05,19,00,24,6.40
2010,05,19,00,25,9.20
2010,05,19,00,26,8.00
2010,05,19,00,27,6.40
2010,05,19,00,28,8.00
2010,05,19,00,29,2.10
2010,05,19,00,30,2.10
2010,05,19,00,31,0.70
2010,05,19,00,32,0.70
2010,05,19,00,33,1.00
2010,05,19,00,34,2.70
2010,05,19,00,35,4.30
2010,05,19,00,36,4.40
2010,05,19,00,37,7.00
2010,05,19,00,38,1.50
2010,05,19,00,39,5.60
2010,05,19,00,40,2.80
2010,05,19,00,41,2.10
2010,05,19,00,42,2.90
2010,05,19,00,43,5.30
2010,05,19,00,44,1.50
2010,05,19,00,45,3.30
2010,05,19,00,46,5.20
2010,05,19,00,47,4.60
2010,05,19,00,48,5.60
2010,05,19,00,49,3.40
2010,05,19,00,50,7.00
2010,05,19,00,51,7.00
2010,05,19,00,52,7.20
2010,05,19,00,53,3.40
2010,05,19,00,54,8.20
2010,05,19,00,55,5.70
2010,05,19,00,56,13.00
2010,05,19,00,57,3.10
2010,05,19,00,58,3.80
2010,05,19,00,59,7.30
2010,05,19,01,00,4.80
2010,05,19,01,01,7.70
2010,05,19,01,02,2.90
2010,05,19,01,03,1.00
2010,05,19,01,04,2.90
2010,05,19,01,05,3.60
2010,05,19,01,06,8.00
2010,05,19,01,07,4.30
2010,05,19,01,08,3.10
2010,05,19,01,09,1.20
2010,05,19,01,10,5.60
2010,05,19,01,11,4.20
2010,05,19,01,12,4.00
2010,05,19,01,13,4.60
2010,05,19,01,14,1.40
2010,05,19,01,15,0.10
2010,05,19,01,16,0.40
2010,05,19,01,17,1.70
2010,05,19,01,18,5.50
2010,05,19,01,19,4.80
2010,05,19,01,20,2.80
2010,05,19,01,21,4.50
2010,05,19,01,22,4.10
2010,05,19,01,23,4.70
2010,05,19,01,24,5.80
2010,05,19,01,25,3.50
2010,05,19,01,26,1.70
2010,05,19,01,27,0.40
2010,05,19,01,28,2.20
2010,05,19,01,29,3.80
2010,05,19,01,30,3.90
2010,05,19,01,31,8.60
2010,05,19,01,32,12.40
2010,05,19,01,33,4.10
2010,05,19,01,34,8.70
2010,05,19,01,35,4.40
2010,05,19,01,36,1.20
2010,05,19,01,37,1.60
2010,05,19,01,38,6.30
2010,05,19,01,39,6.50
2010,05,19,01,40,3.10
2010,05,19,01,41,7.20
2010,05,19,01,42,6.50
2010,05,19,01,43,6.00
2010,05,19,01,44,7.30
2010,05,19,01,45,10.40
2010,05,19,01,46,4.80
2010,05,19,01,47,7.40
2010,05,19,01,48,3.90
2010,05,19,01,49,5.60
2010,05,19,01,50,8.20
2010,05,19,01,51,9.90
2010,05,19,01,52,6.00
2010,05,19,01,53,8.10
2010,05,19,01,54,3.70
2010,05,19,01,55,5.00
2010,05,19,01,56,1.40
2010,05,19,01,57,5.60
2010,05,19,01,58,1.70
2010,05,19,01,59,7.20
2010,05,19,02,00,9.00
2010,05,19,02,01,7.00
2010,05,19,02,02,5.20
2010,05,19,02,03,6.90
2010,05,19,02,04,2.30
2010,05,19,02,05,7.50
2010,05,19,02,06,9.00
2010,05,19,02,07,2.10
2010,05,19,02,08,13.00
2010,05,19,02,09,3.50
2010,05,19,02,10,9.10
2010,05,19,02,11,4.00
2010,05,19,02,12,10.40
2010,05,19,02,13,3.90
2010,05,19,02,14,6.00
2010,05,19,02,15,7.80
2010,05,19,02,16,7.70
2010,05,19,02,17,7.40
2010,05,19,02,18,7.80
2010,05,19,02,19,5.60
2010,05,19,02,20,9.50
2010,05,19,02,21,7.30
2010,05,19,02,22,3.80
2010,05,19,02,23,2.20
2010,05,19,02,24,10.70
2010,05,19,02,25,6.50
2010,05,19,02,26,8.20
2010,05,19,02,27,1.70
2010,05,19,02,28,4.40
2010,05,19,02,29,4.10
2010,05,19,02,30,9.00
2010,05,19,02,31,2.30
2010,05,19,02,32,10.10
2010,05,19,02,33,3.90
2010,05,19,02,34,15.30
2010,05,19,02,35,10.70
2010,05,19,02,36,9.90
2010,05,19,02,37,8.30
2010,05,19,02,38,10.50
2010,05,19,02,39,12.70
2010,05,19,02,40,6.70
2010,05,19,02,41,5.70
2010,05,19,02,42,7.10
2010,05,19,02,43,8.00
2010,05,19,02,44,9.30
2010,05,19,02,45,6.90
2010,05,19,02,46,2.50
2010,05,19,02,47,0.70
2010,05,19,02,48,1.10
2010,05,19,02,49,7.00
2010,05,19,02,50,10.20
2010,05,19,02,51,15.10
2010,05,19,02,52,9.40
2010,05,19,02,53,2.10
2010,05,19,02,54,2.40
2010,05,19,02,55,3.70
2010,05,19,02,56,3.30
2010,05,19,02,57,4.80
2010,05,19,02,58,1.60
2010,05,19,02,59,3.60
2010,05,19,03,00,9.20
2010,05,19,03,01,9.10
2010,05,19,03,02,4.80
2010,05,19,03,03,4.00
2010,05,19,03,04,1.80
2010,05,19,03,05,6.40
2010,05,19,03,06,2.40
2010,05,19,03,07,0.70
2010,05,19,03,08,5.30
2010,05,19,03,09,1.50
2010,05,19,03,10,0.10
2010,05,19,03,11,2.40
2010,05,19,03,12,2.70
2010,05,19,03,13,2.90
2010,05,19,03,14,3.80
2010,05,19,03,15,6.20
2010,05,19,03,16,2.00
2010,05,19,03,17,7.70
2010,05,19,03,18,7.60
2010,05,19,03,19,2.90
2010,05,19,03,20,0.20
2010,05,19,03,21,3.30
2010,05,19,03,22,0.70
2010,05,19,03,23,5.70
2010,05,19,03,24,2.50
2010,05,19,03,25,1.60
2010,05,19,03,26,2.30
2010,05,19,03,27,2.10
2010,05,19,03,28,1.30
2010,05,19,03,29,2.60
2010,05,19,03,30,0.20
2010,05,19,03,31,2.60
2010,05,19,03,32,0.90
2010,05,19,03,33,2.00
2010,05,19,03,34,2.00
2010,05,19,03,35,2.20
2010,05,19,03,36,0.10
2010,05,19,03,37,1.20
2010,05,19,03,38,1.00
2010,05,19,03,39,0.10
2010,05,19,03,40,2.60
2010,05,19,03,41,0.10
2010,05,19,03,42,0.30
2010,05,19,03,43,2.20
2010,05,19,03,44,2.90
2010,05,19,03,45,3.40
2010,05,19,03,46,2.90
2010,05,19,03,47,0.10
2010,05,19,03,48,1.40
2010,05,19,03,49,2.70
2010,05,19,03,50,5.70
2010,05,19,03,51,2.10
2010,05,19,03,52,1.70
2010,05,19,03,53,4.70
2010,05,19,03,54,1.70
2010,05,19,03,55,1.20
2010,05,19,03,56,0.40
2010,05,19,03,57,1.80
2010,05,19,03,58,0.20
2010,05,19,03,59,0.40
2010,05,19,04,00,0.30
2010,05,19,04,01,0.00
2010,05,19,04,02,0.00
2010,05,19,04,03,0.40
2010,05,19,04,04,2.50
2010,05,19,04,05,0.50
2010,05,19,04,06,0.70
2010,05,19,04,07,0.90
2010,05,19,04,08,0.00
2010,05,19,04,09,0.20
2010,05,19,04,10,1.80
2010,05,19,04,11,0.30
2010,05,19,04,12,2.60
2010,05,19,04,13,1.50
2010,05,19,04,14,0.00
2010,05,19,04,15,0.00
2010,05,19,04,16,1.50
2010,05,19,04,17,4.50
2010,05,19,04,18,0.20
2010,05,19,04,19,0.70
2010,05,19,04,20,0.30
2010,05,19,04,21,0.00
2010,05,19,04,22,0.70
2010,05,19,04,23,1.30
2010,05,19,04,24,0.00
2010,05,19,04,25,0.00
2010,05,19,04,26,0.00
2010,05,19,04,27,0.00
2010,05,19,04,28,0.10
2010,05,19,04,29,4.00
2010,05,19,04,30,0.30
2010,05,19,04,31,0.00
2010,05,19,04,32,0.00
2010,05,19,04,33,0.00
2010,05,19,04,34,0.10
2010,05,19,04,35,1.40
2010,05,19,04,36,1.20
2010,05,19,04,37,0.80
2010,05,19,04,38,0.00
2010,05,19,04,39,3.50
2010,05,19,04,40,1.00
2010,05,19,04,41,0.00
2010,05,19,04,42,0.50
2010,05,19,04,43,0.50
2010,05,19,04,44,0.30
2010,05,19,04,45,0.40
2010,05,19,04,46,0.20
2010,05,19,04,47,0.90
2010,05,19,04,48,0.20
2010,05,19,04,49,2.40
2010,05,19,04,50,0.10
2010,05,19,04,51,0.40
2010,05,19,04,52,1.10
2010,05,19,04,53,1.20
2010,05,19,04,54,0.20
2010,05,19,04,55,0.10
2010,05,19,04,56,0.00
2010,05,19,04,57,0.00
2010,05,19,04,58,0.30
2010,05,19,04,59,0.00
2010,05,19,05,00,0.00
2010,05,19,05,01,0.00
2010,05,19,05,02,0.00
2010,05,19,05,03,0.40
2010,05,19,05,04,0.30
2010,05,19,05,05,2.10
2010,05,19,05,06,0.10
2010,05,19,05,07,0.70
2010,05,19,05,08,0.10
2010,05,19,05,09,0.20
2010,05,19,05,10,0.00
2010,05,19,05,11,2.60
2010,05,19,05,12,1.00
2010,05,19,05,13,0.30
2010,05,19,05,14,0.50
2010,05,19,05,15,0.20
2010,05,19,05,16,0.40
2010,05,19,05,17,1.10
2010,05,19,05,18,1.80
2010,05,19,05,19,2.30
2010,05,19,05,20,3.80
2010,05,19,05,21,0.60
2010,05,19,05,22,3.10
2010,05,19,05,23,0.70
2010,05,19,05,24,0.40
2010,05,19,05,25,0.80
2010,05,19,05,26,0.10
2010,05,19,05,27,0.00
2010,05,19,05,28,0.30
2010,05,19,05,29,0.00
2010,05,19,05,30,0.20
2010,05,19,05,31,0.40
2010,05,19,05,32,0.00
2010,05,19,05,33,0.00
2010,05,19,05,34,0.00
2010,05,19,05,35,0.00
2010,05,19,05,36,0.00
2010,05,19,05,37,0.00
2010,05,19,05,38,0.00
2010,05,19,05,39,0.00
2010,05,19,05,40,0.00
2010,05,19,05,41,0.00
2010,05,19,05,42,0.00
2010,05,19,05,43,0.00
2010,05,19,05,44,0.00
2010,05,19,05,45,0.00
2010,05,19,05,46,0.00
2010,05,19,05,47,0.00
2010,05,19,05,48,0.80
2010,05,19,05,49,0.00
2010,05,19,05,50,0.00
2010,05,19,05,51,0.00
2010,05,19,05,52,0.00
2010,05,19,05,53,0.30
2010,05,19,05,54,0.00
2010,05,19,05,55,0.00
2010,05,19,05,56,0.00
2010,05,19,05,57,0.00
2010,05,19,05,58,0.00
2010,05,19,05,59,0.00
2010,05,19,06,00,0.00
2010,05,19,06,01,0.00
2010,05,19,06,02,0.00
2010,05,19,06,03,0.00
2010,05,19,06,04,0.00
2010,05,19,06,05,0.00
2010,05,19,06,06,0.20
2010,05,19,06,07,0.00
2010,05,19,06,08,0.10
2010,05,19,06,09,0.00
2010,05,19,06,10,0.00
2010,05,19,06,11,0.00
2010,05,19,06,12,0.00
2010,05,19,06,13,0.00
2010,05,19,06,14,0.10
2010,05,19,06,15,1.20
2010,05,19,06,16,1.30
2010,05,19,06,17,0.20
2010,05,19,06,18,0.00
2010,05,19,06,19,0.00
2010,05,19,06,20,0.00
2010,05,19,06,21,0.00
2010,05,19,06,22,0.00
2010,05,19,06,23,0.00
2010,05,19,06,24,0.00
2010,05,19,06,25,0.00
2010,05,19,06,26,0.00
2010,05,19,06,27,0.00
2010,05,19,06,28,0.00
2010,05,19,06,29,0.00
2010,05,19,06,30,0.00
2010,05,19,06,31,0.00
2010,05,19,06,32,0.00
2010,05,19,06,33,0.00
2010,05,19,06,34,0.10
2010,05,19,06,35,0.00
2010,05,19,06,36,0.00
2010,05,19,06,37,0.00
2010,05,19,06,38,0.00
2010,05,19,06,39,0.00
2010,05,19,06,40,0.00
2010,05,19,06,41,0.00
2010,05,19,06,42,0.10
2010,05,19,06,43,0.00
2010,05,19,06,44,0.00
2010,05,19,06,45,0.00
2010,05,19,06,46,0.60
2010,05,19,06,47,0.70
2010,05,19,06,48,0.00
2010,05,19,06,49,0.00
2010,05,19,06,50,0.00
2010,05,19,06,51,0.00
2010,05,19,06,52,0.20
2010,05,19,06,53,1.50
2010,05,19,06,54,0.50
2010,05,19,06,55,1.90
2010,05,19,06,56,0.10
2010,05,19,06,57,0.00
2010,05,19,06,58,0.00
2010,05,19,06,59,0.00
2010,05,19,07,00,0.00
2010,05,19,07,01,0.00
2010,05,19,07,02,0.80
2010,05,19,07,03,0.00
2010,05,19,07,04,0.20
2010,05,19,07,05,1.50
2010,05,19,07,06,2.00
2010,05,19,07,07,1.30
2010,05,19,07,08,0.00
2010,05,19,07,09,0.20
2010,05,19,07,10,0.00
2010,05,19,07,11,0.70
2010,05,19,07,12,0.30
2010,05,19,07,13,0.10
2010,05,19,07,14,0.00
2010,05,19,07,15,0.00
2010,05,19,07,16,0.10
2010,05,19,07,17,1.90
2010,05,19,07,18,1.70
2010,05,19,07,19,0.40
2010,05,19,07,20,0.00
2010,05,19,07,21,0.10
2010,05,19,07,22,0.00
2010,05,19,07,23,1.80
2010,05,19,07,24,0.80
2010,05,19,07,25,0.90
2010,05,19,07,26,0.30
2010,05,19,07,27,1.20
2010,05,19,07,28,1.70
2010,05,19,07,29,0.30
2010,05,19,07,30,0.70
2010,05,19,07,31,0.00
2010,05,19,07,32,0.10
2010,05,19,07,33,2.10
2010,05,19,07,34,0.20
2010,05,19,07,35,1.20
2010,05,19,07,36,3.80
2010,05,19,07,37,0.80
2010,05,19,07,38,1.30
2010,05,19,07,39,0.70
2010,05,19,07,40,0.00
2010,05,19,07,41,0.10
2010,05,19,07,42,0.50
2010,05,19,07,43,0.30
2010,05,19,07,44,0.10
2010,05,19,07,45,1.10
2010,05,19,07,46,2.90
2010,05,19,07,47,3.50
2010,05,19,07,48,0.40
2010,05,19,07,49,3.50
2010,05,19,07,50,1.90
2010,05,19,07,51,1.40
2010,05,19,07,52,1.20
2010,05,19,07,53,3.40
2010,05,19,07,54,1.80
2010,05,19,07,55,3.70
2010,05,19,07,56,3.00
2010,05,19,07,57,2.20
2010,05,19,07,58,2.80
2010,05,19,07,59,1.20
2010,05,19,08,00,0.00
2010,05,19,08,01,0.00
2010,05,19,08,02,1.50
2010,05,19,08,03,0.40
2010,05,19,08,04,0.00
2010,05,19,08,05,0.00
2010,05,19,08,06,0.60
2010,05,19,08,07,0.30
2010,05,19,08,08,2.90
2010,05,19,08,09,0.50
2010,05,19,08,10,0.90
2010,05,19,08,11,0.60
2010,05,19,08,12,0.40
2010,05,19,08,13,1.50
2010,05,19,08,14,0.50
2010,05,19,08,15,0.30
2010,05,19,08,16,0.90
2010,05,19,08,17,0.40
2010,05,19,08,18,0.00
2010,05,19,08,19,0.00
2010,05,19,08,20,0.00
2010,05,19,08,21,0.80
2010,05,19,08,22,0.00
2010,05,19,08,23,0.20
2010,05,19,08,24,0.50
2010,05,19,08,25,1.90
2010,05,19,08,26,1.20
2010,05,19,08,27,3.70
2010,05,19,08,28,0.60
2010,05,19,08,29,0.10
2010,05,19,08,30,0.00
2010,05,19,08,31,1.10
2010,05,19,08,32,2.60
2010,05,19,08,33,0.40
2010,05,19,08,34,0.20
2010,05,19,08,35,0.10
2010,05,19,08,36,0.10
2010,05,19,08,37,0.10
2010,05,19,08,38,1.50
2010,05,19,08,39,0.90
2010,05,19,08,40,0.00
2010,05,19,08,41,0.00
2010,05,19,08,42,1.10
2010,05,19,08,43,4.50
2010,05,19,08,44,4.10
2010,05,19,08,45,3.10
2010,05,19,08,46,3.40
2010,05,19,08,47,4.30
2010,05,19,08,48,2.70
2010,05,19,08,49,5.00
2010,05,19,08,50,4.00
2010,05,19,08,51,3.50
2010,05,19,08,52,2.60
2010,05,19,08,53,1.90
2010,05,19,08,54,8.10
2010,05,19,08,55,5.90
2010,05,19,08,56,6.10
2010,05,19,08,57,10.50
2010,05,19,08,58,6.20
2010,05,19,08,59,0.70
2010,05,19,09,00,2.40
2010,05,19,09,01,0.10
2010,05,19,09,02,2.10
2010,05,19,09,03,4.00
2010,05,19,09,04,2.30
2010,05,19,09,05,3.10
2010,05,19,09,06,1.40
2010,05,19,09,07,5.20
2010,05,19,09,08,2.30
2010,05,19,09,09,1.50
2010,05,19,09,10,4.70
2010,05,19,09,11,5.90
2010,05,19,09,12,1.40
2010,05,19,09,13,0.70
2010,05,19,09,14,2.20
2010,05,19,09,15,5.20
2010,05,19,09,16,1.40
2010,05,19,09,17,1.80
2010,05,19,09,18,1.10
2010,05,19,09,19,0.10
2010,05,19,09,20,4.60
2010,05,19,09,21,3.40
2010,05,19,09,22,2.40
2010,05,19,09,23,0.40
2010,05,19,09,24,0.40
2010,05,19,09,25,4.50
2010,05,19,09,26,8.20
2010,05,19,09,27,7.60
2010,05,19,09,28,8.70
2010,05,19,09,29,4.00
2010,05,19,09,30,0.00
2010,05,19,09,31,0.60
2010,05,19,09,32,4.50
2010,05,19,09,33,5.20
2010,05,19,09,34,0.40
2010,05,19,09,35,1.50
2010,05,19,09,36,4.30
2010,05,19,09,37,1.00
2010,05,19,09,38,0.50
2010,05,19,09,39,0.70
2010,05,19,09,40,1.40
2010,05,19,09,41,1.00
2010,05,19,09,42,1.80
2010,05,19,09,43,0.00
2010,05,19,09,44,0.30
2010,05,19,09,45,2.60
2010,05,19,09,46,4.10
2010,05,19,09,47,7.20
2010,05,19,09,48,2.30
2010,05,19,09,49,0.40
2010,05,19,09,50,6.00
2010,05,19,09,51,3.40
2010,05,19,09,52,4.90
2010,05,19,09,53,1.10
2010,05,19,09,54,0.50
2010,05,19,09,55,7.10
2010,05,19,09,56,2.90
2010,05,19,09,57,5.10
2010,05,19,09,58,1.40
2010,05,19,09,59,1.90
2010,05,19,10,00,0.30
2010,05,19,10,01,2.30
2010,05,19,10,02,1.30
2010,05,19,10,03,1.00
2010,05,19,10,04,3.70
2010,05,19,10,05,3.00
2010,05,19,10,06,1.00
2010,05,19,10,07,0.60
2010,05,19,10,08,1.00
2010,05,19,10,09,3.00
2010,05,19,10,10,2.40
2010,05,19,10,11,2.00
2010,05,19,10,12,2.80
2010,05,19,10,13,1.30
2010,05,19,10,14,0.40
2010,05,19,10,15,1.30
2010,05,19,10,16,1.00
2010,05,19,10,17,0.80
2010,05,19,10,18,1.40
2010,05,19,10,19,1.30
2010,05,19,10,20,0.30
2010,05,19,10,21,0.30
2010,05,19,10,22,2.50
2010,05,19,10,23,3.70
2010,05,19,10,24,4.80
2010,05,19,10,25,1.30
2010,05,19,10,26,1.80
2010,05,19,10,27,3.10
2010,05,19,10,28,1.70
2010,05,19,10,29,1.60
2010,05,19,10,30,0.70
2010,05,19,10,31,3.30
2010,05,19,10,32,5.20
2010,05,19,10,33,2.00
2010,05,19,10,34,2.80
2010,05,19,10,35,3.30
2010,05,19,10,36,2.70
2010,05,19,10,37,0.90
2010,05,19,10,38,0.30
2010,05,19,10,39,0.40
2010,05,19,10,40,0.00
2010,05,19,10,41,3.70
2010,05,19,10,42,2.70
2010,05,19,10,43,3.30
2010,05,19,10,44,4.50
2010,05,19,10,45,6.10
2010,05,19,10,46,3.20
2010,05,19,10,47,5.60
2010,05,19,10,48,4.70
2010,05,19,10,49,3.70
2010,05,19,10,50,4.50
2010,05,19,10,51,3.10
2010,05,19,10,52,2.00
2010,05,19,10,53,7.50
2010,05,19,10,54,2.90
2010,05,19,10,55,1.20
2010,05,19,10,56,3.10
2010,05,19,10,57,4.00
2010,05,19,10,58,2.60
2010,05,19,10,59,3.90
2010,05,19,11,00,3.70
2010,05,19,11,01,2.80
2010,05,19,11,02,2.10
2010,05,19,11,03,2.90
2010,05,19,11,04,4.70
2010,05,19,11,05,2.50
2010,05,19,11,06,2.40
2010,05,19,11,07,2.40
2010,05,19,11,08,4.60
2010,05,19,11,09,3.80
2010,05,19,11,10,5.50
2010,05,19,11,11,2.00
2010,05,19,11,12,2.50
2010,05,19,11,13,7.20
2010,05,19,11,14,2.40
2010,05,19,11,15,2.80
2010,05,19,11,16,5.50
2010,05,19,11,17,6.40
2010,05,19,11,18,3.90
2010,05,19,11,19,4.80
2010,05,19,11,20,5.00
2010,05,19,11,21,4.10
2010,05,19,11,22,2.90
2010,05,19,11,23,5.50
2010,05,19,11,24,6.10
2010,05,19,11,25,3.70
2010,05,19,11,26,6.40
2010,05,19,11,27,7.50
2010,05,19,11,28,7.10
2010,05,19,11,29,2.20
2010,05,19,11,30,4.50
2010,05,19,11,31,4.90
2010,05,19,11,32,3.40
2010,05,19,11,33,0.70
2010,05,19,11,34,5.30
2010,05,19,11,35,5.00
2010,05,19,11,36,3.70
2010,05,19,11,37,2.30
2010,05,19,11,38,2.90
2010,05,19,11,39,4.10
2010,05,19,11,40,2.70
2010,05,19,11,41,4.50
2010,05,19,11,42,5.00
2010,05,19,11,43,4.80
2010,05,19,11,44,1.90
2010,05,19,11,45,3.80
2010,05,19,11,46,0.70
2010,05,19,11,47,3.20
2010,05,19,11,48,1.00
2010,05,19,11,49,5.40
2010,05,19,11,50,4.30
2010,05,19,11,51,5.30
2010,05,19,11,52,5.80
2010,05,19,11,53,3.00
2010,05,19,11,54,3.70
2010,05,19,11,55,1.90
2010,05,19,11,56,0.70
2010,05,19,11,57,0.70
2010,05,19,11,58,4.70
2010,05,19,11,59,5.30
2010,05,19,12,00,6.90
2010,05,19,12,01,3.00
2010,05,19,12,02,0.50
2010,05,19,12,03,4.00
2010,05,19,12,04,3.00
2010,05,19,12,05,2.30
2010,05,19,12,06,0.50
2010,05,19,12,07,6.90
2010,05,19,12,08,5.30
2010,05,19,12,09,5.00
2010,05,19,12,10,3.70
2010,05,19,12,11,2.30
2010,05,19,12,12,7.00
2010,05,19,12,13,4.80
2010,05,19,12,14,1.70
2010,05,19,12,15,2.50
2010,05,19,12,16,1.30
2010,05,19,12,17,0.80
2010,05,19,12,18,2.90
2010,05,19,12,19,7.30
2010,05,19,12,20,5.60
2010,05,19,12,21,5.60
2010,05,19,12,22,2.90
2010,05,19,12,23,2.40
2010,05,19,12,24,3.60
2010,05,19,12,25,3.70
2010,05,19,12,26,7.30
2010,05,19,12,27,2.50
2010,05,19,12,28,0.80
2010,05,19,12,29,1.60
2010,05,19,12,30,4.20
2010,05,19,12,31,5.40
2010,05,19,12,32,1.80
2010,05,19,12,33,4.10
2010,05,19,12,34,2.10
2010,05,19,12,35,3.70
2010,05,19,12,36,0.10
2010,05,19,12,37,4.20
2010,05,19,12,38,3.30
2010,05,19,12,39,0.90
2010,05,19,12,40,4.30
2010,05,19,12,41,0.60
2010,05,19,12,42,3.80
2010,05,19,12,43,2.30
2010,05,19,12,44,4.90
2010,05,19,12,45,5.20
2010,05,19,12,46,8.00
2010,05,19,12,47,2.30
2010,05,19,12,48,2.30
2010,05,19,12,49,4.20
2010,05,19,12,50,3.20
2010,05,19,12,51,1.80
2010,05,19,12,52,3.10
2010,05,19,12,53,2.90
2010,05,19,12,54,0.30
2010,05,19,12,55,0.00
2010,05,19,12,56,0.80
2010,05,19,12,57,1.00
2010,05,19,12,58,3.70
2010,05,19,12,59,4.70
2010,05,19,13,00,2.10
2010,05,19,13,01,4.80
2010,05,19,13,02,1.50
2010,05,19,13,03,3.40
2010,05,19,13,04,3.20
2010,05,19,13,05,6.50
2010,05,19,13,06,8.30
2010,05,19,13,07,6.10
2010,05,19,13,08,3.80
2010,05,19,13,09,7.10
2010,05,19,13,10,4.00
2010,05,19,13,11,6.40
2010,05,19,13,12,6.60
2010,05,19,13,13,9.80
2010,05,19,13,14,7.00
2010,05,19,13,15,14.30
2010,05,19,13,16,10.10
2010,05,19,13,17,7.20
2010,05,19,13,18,6.60
2010,05,19,13,19,8.60
2010,05,19,13,20,11.10
2010,05,19,13,21,7.30
2010,05,19,13,22,10.50
2010,05,19,13,23,9.10
2010,05,19,13,24,10.60
2010,05,19,13,25,8.70
2010,05,19,13,26,12.70
2010,05,19,13,27,9.70
2010,05,19,13,28,8.80
2010,05,19,13,29,8.00
2010,05,19,13,30,5.50
2010,05,19,13,31,3.80
2010,05,19,13,32,2.20
2010,05,19,13,33,7.60
2010,05,19,13,34,5.50
2010,05,19,13,35,1.90
2010,05,19,13,36,4.00
2010,05,19,13,37,2.60
2010,05,19,13,38,5.40
2010,05,19,13,39,3.70
2010,05,19,13,40,5.70
2010,05,19,13,41,8.90
2010,05,19,13,42,7.00
2010,05,19,13,43,5.60
2010,05,19,13,44,2.30
2010,05,19,13,45,13.00
2010,05,19,13,46,8.10
2010,05,19,13,47,3.50
2010,05,19,13,48,4.50
2010,05,19,13,49,9.20
2010,05,19,13,50,6.30
2010,05,19,13,51,7.30
2010,05,19,13,52,12.10
2010,05,19,13,53,6.30
2010,05,19,13,54,7.90
2010,05,19,13,55,5.30
2010,05,19,13,56,1.20
2010,05,19,13,57,4.00
2010,05,19,13,58,5.00
2010,05,19,13,59,3.70
2010,05,19,14,00,7.10
2010,05,19,14,01,4.90
2010,05,19,14,02,3.60
2010,05,19,14,03,5.90
2010,05,19,14,04,5.90
2010,05,19,14,05,5.50
2010,05,19,14,06,6.90
2010,05,19,14,07,4.40
2010,05,19,14,08,7.20
2010,05,19,14,09,8.20
2010,05,19,14,10,6.60
2010,05,19,14,11,6.00
2010,05,19,14,12,7.20
2010,05,19,14,13,8.40
2010,05,19,14,14,3.90
2010,05,19,14,15,4.70
2010,05,19,14,16,6.90
2010,05,19,14,17,3.10
2010,05,19,14,18,2.30
2010,05,19,14,19,6.40
2010,05,19,14,20,9.50
2010,05,19,14,21,7.30
2010,05,19,14,22,5.40
2010,05,19,14,23,10.80
2010,05,19,14,24,10.10
2010,05,19,14,25,9.70
2010,05,19,14,26,14.20
2010,05,19,14,27,9.20
2010,05,19,14,28,3.80
2010,05,19,14,29,10.50
2010,05,19,14,30,1.70
2010,05,19,14,31,2.90
2010,05,19,14,32,0.90
2010,05,19,14,33,3.10
2010,05,19,14,34,6.90
2010,05,19,14,35,12.60
2010,05,19,14,36,4.80
2010,05,19,14,37,3.00
2010,05,19,14,38,1.70
2010,05,19,14,39,4.20
2010,05,19,14,40,3.40
2010,05,19,14,41,3.10
2010,05,19,14,42,6.40
2010,05,19,14,43,2.40
2010,05,19,14,44,3.10
2010,05,19,14,45,0.10
2010,05,19,14,46,1.20
2010,05,19,14,47,0.60
2010,05,19,14,48,2.70
2010,05,19,14,49,0.90
2010,05,19,14,50,1.10
2010,05,19,14,51,2.50
2010,05,19,14,52,3.30
2010,05,19,14,53,0.90
2010,05,19,14,54,4.80
2010,05,19,14,55,5.60
2010,05,19,14,56,2.90
2010,05,19,14,57,0.60
2010,05,19,14,58,3.40
2010,05,19,14,59,5.90
2010,05,19,15,00,0.90
2010,05,19,15,01,1.30
2010,05,19,15,02,1.20
2010,05,19,15,03,0.70
2010,05,19,15,04,0.90
2010,05,19,15,05,2.20
2010,05,19,15,06,0.00
2010,05,19,15,07,0.00
2010,05,19,15,08,0.00
2010,05,19,15,09,1.00
2010,05,19,15,10,3.50
2010,05,19,15,11,0.60
2010,05,19,15,12,2.10
2010,05,19,15,13,0.50
2010,05,19,15,14,0.00
2010,05,19,15,15,0.10
2010,05,19,15,16,3.20
2010,05,19,15,17,1.70
2010,05,19,15,18,0.10
2010,05,19,15,19,1.20
2010,05,19,15,20,0.50
2010,05,19,15,21,0.00
2010,05,19,15,22,0.00
2010,05,19,15,23,1.60
2010,05,19,15,24,2.40
2010,05,19,15,25,0.20
2010,05,19,15,26,1.00
2010,05,19,15,27,2.00
2010,05,19,15,28,0.00
2010,05,19,15,29,1.50
2010,05,19,15,30,1.20
2010,05,19,15,31,1.00
2010,05,19,15,32,1.50
2010,05,19,15,33,0.10
2010,05,19,15,34,0.40
2010,05,19,15,35,0.50
2010,05,19,15,36,0.50
2010,05,19,15,37,1.30
2010,05,19,15,38,0.30
2010,05,19,15,39,0.00
2010,05,19,15,40,0.10
2010,05,19,15,41,0.50
2010,05,19,15,42,0.40
2010,05,19,15,43,1.10
2010,05,19,15,44,0.10
2010,05,19,15,45,1.50
2010,05,19,15,46,2.60
2010,05,19,15,47,2.00
2010,05,19,15,48,5.00
2010,05,19,15,49,2.10
2010,05,19,15,50,2.70
2010,05,19,15,51,2.20
2010,05,19,15,52,0.30
2010,05,19,15,53,3.80
2010,05,19,15,54,1.90
2010,05,19,15,55,5.60
2010,05,19,15,56,2.50
2010,05,19,15,57,4.50
2010,05,19,15,58,2.70
2010,05,19,15,59,4.60
2010,05,19,16,00,10.80
2010,05,19,16,01,6.10
2010,05,19,16,02,1.10
2010,05,19,16,03,2.90
2010,05,19,16,04,2.20
2010,05,19,16,05,5.80
2010,05,19,16,06,4.70
2010,05,19,16,07,7.60
2010,05,19,16,08,11.10
2010,05,19,16,09,4.10
2010,05,19,16,10,4.80
2010,05,19,16,11,5.00
2010,05,19,16,12,4.20
2010,05,19,16,13,4.40
2010,05,19,16,14,9.80
2010,05,19,16,15,11.10
2010,05,19,16,16,11.00
2010,05,19,16,17,19.20
2010,05,19,16,18,5.00
2010,05,19,16,19,16.00
2010,05,19,16,20,8.40
2010,05,19,16,21,9.50
2010,05,19,16,22,6.80
2010,05,19,16,23,3.80
2010,05,19,16,24,2.90
2010,05,19,16,25,13.70
2010,05,19,16,26,10.30
2010,05,19,16,27,7.40
2010,05,19,16,28,11.80
2010,05,19,16,29,10.20
2010,05,19,16,30,15.60
2010,05,19,16,31,12.70
2010,05,19,16,32,11.20
2010,05,19,16,33,10.10
2010,05,19,16,34,10.80
2010,05,19,16,35,14.30
2010,05,19,16,36,11.20
2010,05,19,16,37,14.70
2010,05,19,16,38,12.00
2010,05,19,16,39,19.20
2010,05,19,16,40,14.40
2010,05,19,16,41,14.80
2010,05,19,16,42,13.50
2010,05,19,16,43,18.70
2010,05,19,16,44,11.90
2010,05,19,16,45,12.80
2010,05,19,16,46,14.10
2010,05,19,16,47,8.90
2010,05,19,16,48,11.20
2010,05,19,16,49,18.80
2010,05,19,16,50,12.40
2010,05,19,16,51,17.00
2010,05,19,16,52,24.30
2010,05,19,16,53,16.20
2010,05,19,16,54,12.20
2010,05,19,16,55,15.10
2010,05,19,16,56,14.60
2010,05,19,16,57,6.40
2010,05,19,16,58,9.70
2010,05,19,16,59,11.30
2010,05,19,17,00,8.90
2010,05,19,17,01,7.60
2010,05,19,17,02,10.00
2010,05,19,17,03,7.20
2010,05,19,17,04,8.00
2010,05,19,17,05,15.40
2010,05,19,17,06,12.70
2010,05,19,17,07,14.20
2010,05,19,17,08,9.70
2010,05,19,17,09,8.70
2010,05,19,17,10,7.80
2010,05,19,17,11,12.90
2010,05,19,17,12,17.00
2010,05,19,17,13,19.80
2010,05,19,17,14,16.20
2010,05,19,17,15,10.00
2010,05,19,17,16,17.10
2010,05,19,17,17,10.20
2010,05,19,17,18,12.50
2010,05,19,17,19,16.20
2010,05,19,17,20,16.20
2010,05,19,17,21,18.00
2010,05,19,17,22,28.10
2010,05,19,17,23,23.40
2010,05,19,17,24,10.20
2010,05,19,17,25,20.70
2010,05,19,17,26,14.30
2010,05,19,17,27,17.00
2010,05,19,17,28,11.30
2010,05,19,17,29,19.00
2010,05,19,17,30,14.00
2010,05,19,17,31,19.40
2010,05,19,17,32,13.20
2010,05,19,17,33,9.60
2010,05,19,17,34,7.80
2010,05,19,17,35,9.10
2010,05,19,17,36,5.40
2010,05,19,17,37,12.10
2010,05,19,17,38,19.80
2010,05,19,17,39,14.00
2010,05,19,17,40,8.90
2010,05,19,17,41,10.90
2010,05,19,17,42,16.90
2010,05,19,17,43,14.00
2010,05,19,17,44,8.90
2010,05,19,17,45,13.10
2010,05,19,17,46,11.60
2010,05,19,17,47,16.60
2010,05,19,17,48,11.90
2010,05,19,17,49,19.20
2010,05,19,17,50,12.40
2010,05,19,17,51,11.40
2010,05,19,17,52,12.80
2010,05,19,17,53,13.90
2010,05,19,17,54,5.60
2010,05,19,17,55,3.70
2010,05,19,17,56,6.30
2010,05,19,17,57,6.60
2010,05,19,17,58,4.70
2010,05,19,17,59,8.70
2010,05,19,18,00,4.20
2010,05,19,18,01,11.40